Regional Weather Roundup
Issued by NWS Portland, ME

Current Version | Previous Version | Text Only | Print | Product List | Glossary On
Versions: 1 2 3 4 5 6 7 8 9 10 11 12 13 14 15 16 17 18 19 20 21 22 23 24 25 26 27 28 29 30 31 32 33 34 35 36 37 38 39 40 41 42 43 44 45 46 47 48 49 50
000 ASUS41 KGYX 312310 RWRGYX WEATHER ROUNDUP FOR MAINE AND NEW HAMPSHIRE NATIONAL WEATHER SERVICE GRAY ME 700 PM EDT FRI JUL 31 2015 MEZ002-005-006-010-012-015-018-020-021-024-026-027-029-010000- MAINE CITY SKY/WX TMP DP RH WIND PRES REMARKS PORTLAND MOSUNNY 81 54 39 W10 29.72S SANFORD SUNNY 81 54 39 W6 29.75R BAR HARBOR CLEAR 81 57 44 CALM 29.68R WISCASSET CLEAR 81 59 47 VRB3 29.72R ROCKLAND CLEAR 79 57 47 W8 29.68S FRYEBURG SUNNY 78 62 57 CALM 29.74R LEWISTONAUBURN SUNNY 81 54 39 W6 29.73R AUGUSTA SUNNY 79 57 46 VRB7 29.72R WATERVILLE SUNNY 79 57 47 W8 29.68R BANGOR PTCLDY 80 57 45 W7 29.68R GREENVILLE N/A 69 55 60 VRB6 29.72R MILLINOCKET PTCLDY 76 58 53 W8 29.69R HOULTON MOCLDY 76 58 53 W5 29.64R PRESQUE ISLE CLOUDY 75 55 50 W10 29.64R FRENCHVILLE PTCLDY 69 57 65 NW7 29.64R CARIBOU PTCLDY 73 58 59 W6 29.63R $$ NHZ002-005-008-009-011-012-014-010000- NEW HAMPSHIRE CITY SKY/WX TMP DP RH WIND PRES REMARKS PORTSMOUTH MOSUNNY 82 54 37 W7 29.73R ROCHESTER SUNNY 81 54 39 W7 29.75R NASHUA MOSUNNY 82 58 43 W5 29.77R MANCHESTER MOSUNNY 84 53 34 W8 29.75R CONCORD SUNNY 82 50 32 W7 29.76R LACONIA SUNNY 79 54 41 W5 29.75R PLYMOUTH FAIR 78 61 55 CALM 29.75R BERLIN SUNNY 76 54 46 VRB3 29.76S WHITEFIELD SUNNY 74 56 53 W3 29.77S JAFFREY MOSUNNY 78 56 46 VRB3 29.81S KEENE SUNNY 81 55 41 SW5 29.79R LEBANON SUNNY 81 54 39 SW6 29.75S MT WASHINGTON PTSUNNY 48 46 93 W38 N/A $$ VTZ005-007-008-010000- VERMONT CITY SKY/WX TMP DP RH WIND PRES REMARKS ST JOHNSBURY N/A 77 54 44 MISG 29.73F MONTPELIER SUNNY 76 54 46 CALM 29.80F BURLINGTON MOSUNNY 82 54 37 W6 29.72F $$ MAZ007-012-024-CTZ003-RIZ002-NYZ038-NYZ072-010000- SOUTHERN NEW ENGLAND AND NY CITY SKY/WX TMP DP RH WIND PRES REMARKS BOSTON MOSUNNY 84 53 34 W13G22 29.75S WORCESTER SUNNY 77 53 43 W9 29.82S NANTUCKET CLEAR 75 70 84 SW10 29.78S PROVIDENCE MOSUNNY 85 56 37 W9 29.77S HARTFORD MOSUNNY 84 55 36 NW5 29.78S ALBANY MOSUNNY 83 54 36 W8 29.78F NEW YORK CITY MOSUNNY 87 53 31 NW10 29.79S $$ ANZ081-ANZ082-ANZ150-NHZ014-MEZ023>029-010000- COASTAL MARINE OBSERVATIONS STATION/POSITION TIME TEMP WIND PRES WAVE AIR SEA DIR/SP/G HT/PER (UTC) (F) (DEG/KT/KT) (MB) (FT/S) MOUNT DESERT ROC 2300 61 220/ 17/ 17 1005.8R MATINICUS ROCK 2200 64 240/ 17/ 17 1005.3S ISLE OF SHOALS 2200 82 290/ 14/ 15 1006.0F JEFFREYS LEDGE 2203 68 N/A 2/ 8 CASHES LEDGE BUO 2250 70 1006.4S 2/ 8 GEORGES BANK BUO 2250 66 66 230/ 6/ 8 1008.7S 6/ 7 $$ .............KEY.............. WCI - WIND CHILL TC - TEMPERATURE IN CELSIUS VSB - VISIBILITY IN MILES HX - HEAT INDEX FAIR- INDICATES FEW OR NO CLOUDS BELOW 12,000 FT, WITH NO SIGNIFICANT WEATHER AND/OR OBSTRUCTIONS TO VISIBILITY.

USA.gov is the U.S. government's official web portal to all federal, state and local government web resources and services.